TimeMST,TemperatureF,Dew PointF,Humidity,Sea Level PressureIn,VisibilityMPH,Wind Direction,Wind SpeedMPH,Gust SpeedMPH,PrecipitationIn,Events,Conditions,WindDirDegrees,DateUTC
12:15 AM,3.2,3.2,100,30.02,10.0,Calm,Calm,-,N/A,,Clear,0,2012-12-14 07:15:00
12:35 AM,3.2,-7.6,61,30.01,10.0,Calm,Calm,-,N/A,,Clear,0,2012-12-14 07:35:00
12:55 AM,3.2,-0.4,85,30.01,10.0,Calm,Calm,-,N/A,,Clear,0,2012-12-14 07:55:00
1:15 AM,3.2,-0.4,85,30.01,10.0,East,3.5,-,N/A,,Clear,100,2012-12-14 08:15:00
1:35 AM,3.2,-13.0,47,29.99,10.0,Calm,Calm,-,N/A,,Clear,0,2012-12-14 08:35:00
1:55 AM,5.0,-9999,N/A,30.00,10.0,Calm,Calm,-,N/A,,Clear,0,2012-12-14 08:55:00
2:15 AM,6.8,-13.0,40,30.00,10.0,Calm,Calm,-,N/A,,Clear,0,2012-12-14 09:15:00
2:55 AM,6.8,-2.2,67,29.98,10.0,SSE,3.5,-,N/A,,Clear,150,2012-12-14 09:55:00
3:15 AM,8.6,-5.8,52,29.97,10.0,Calm,Calm,-,N/A,,Clear,0,2012-12-14 10:15:00
3:55 AM,8.6,-5.8,52,29.94,10.0,Calm,Calm,-,N/A,,Mostly Cloudy,0,2012-12-14 10:55:00
4:15 AM,8.6,-2.2,62,29.92,10.0,Calm,Calm,-,N/A,,Overcast,0,2012-12-14 11:15:00
4:35 AM,10.4,-9999,N/A,29.90,10.0,Calm,Calm,-,N/A,,Overcast,0,2012-12-14 11:35:00
4:55 AM,10.4,-2.2,57,29.89,10.0,Calm,Calm,-,N/A,,Overcast,0,2012-12-14 11:55:00
5:15 AM,10.4,-5.8,48,29.88,10.0,Calm,Calm,-,N/A,,Overcast,0,2012-12-14 12:15:00
5:35 AM,12.2,12.2,100,29.87,10.0,Calm,Calm,-,N/A,,Overcast,0,2012-12-14 12:35:00
5:55 AM,12.2,8.6,85,29.85,10.0,Calm,Calm,-,N/A,,Overcast,0,2012-12-14 12:55:00
6:15 AM,15.8,1.4,53,29.85,10.0,SE,4.6,-,N/A,,Overcast,130,2012-12-14 13:15:00
6:35 AM,14.0,-0.4,53,29.83,10.0,Calm,Calm,-,N/A,,Overcast,0,2012-12-14 13:35:00
6:55 AM,15.8,14.0,93,29.82,10.0,Calm,Calm,-,N/A,,Overcast,0,2012-12-14 13:55:00
7:15 AM,17.6,15.8,93,29.79,10.0,NE,4.6,-,N/A,,Overcast,40,2012-12-14 14:15:00
7:35 AM,17.6,10.4,73,29.79,10.0,ENE,5.8,-,N/A,,Mostly Cloudy,60,2012-12-14 14:35:00
7:55 AM,17.6,5.0,58,29.78,10.0,ENE,3.5,-,N/A,,Overcast,70,2012-12-14 14:55:00
8:15 AM,19.4,8.6,63,29.77,10.0,ESE,3.5,-,N/A,,Overcast,110,2012-12-14 15:15:00
8:35 AM,19.4,17.6,93,29.78,10.0,Calm,Calm,-,N/A,,Overcast,0,2012-12-14 15:35:00
8:55 AM,19.4,19.4,100,29.78,10.0,Calm,Calm,-,N/A,,Overcast,0,2012-12-14 15:55:00
9:15 AM,19.4,12.2,74,29.76,10.0,Calm,Calm,-,N/A,,Overcast,0,2012-12-14 16:15:00
9:35 AM,19.4,6.8,58,29.75,10.0,Calm,Calm,-,N/A,,Mostly Cloudy,0,2012-12-14 16:35:00
9:55 AM,21.2,3.2,46,29.75,10.0,ESE,3.5,-,N/A,,Partly Cloudy,110,2012-12-14 16:55:00
10:15 AM,23.0,8.6,54,29.72,10.0,East,5.8,-,N/A,,Scattered Clouds,80,2012-12-14 17:15:00
10:55 AM,28.4,12.2,51,29.70,10.0,NE,6.9,-,N/A,,Partly Cloudy,40,2012-12-14 17:55:00
11:15 AM,30.2,14.0,51,29.68,10.0,NE,4.6,-,N/A,,Scattered Clouds,40,2012-12-14 18:15:00
11:35 AM,32.0,12.2,44,29.66,10.0,NE,5.8,-,N/A,,Mostly Cloudy,40,2012-12-14 18:35:00
12:15 PM,33.8,15.8,48,29.63,10.0,North,5.8,-,N/A,,Scattered Clouds,10,2012-12-14 19:15:00
12:35 PM,33.8,15.8,48,29.62,10.0,North,6.9,-,N/A,,Mostly Cloudy,360,2012-12-14 19:35:00
12:55 PM,33.8,17.6,52,29.61,10.0,North,8.1,-,N/A,,Overcast,360,2012-12-14 19:55:00
1:15 PM,33.8,21.2,60,29.60,10.0,North,8.1,-,N/A,,Overcast,360,2012-12-14 20:15:00
1:35 PM,33.8,24.8,70,29.59,10.0,North,6.9,-,N/A,,Overcast,350,2012-12-14 20:35:00
1:55 PM,33.8,26.6,75,29.59,10.0,North,8.1,-,N/A,,Overcast,360,2012-12-14 20:55:00
2:15 PM,33.8,24.8,70,29.59,10.0,North,4.6,-,N/A,,Overcast,360,2012-12-14 21:15:00
2:35 PM,33.8,24.8,70,29.59,10.0,West,6.9,-,N/A,,Overcast,280,2012-12-14 21:35:00
3:35 PM,30.2,24.8,80,29.63,3.0,SSW,5.8,-,N/A,,Overcast,210,2012-12-14 22:35:00
3:55 PM,30.2,24.8,80,29.62,10.0,SSW,3.5,-,N/A,,Overcast,210,2012-12-14 22:55:00
4:15 PM,32.0,26.6,80,29.64,10.0,SSW,3.5,-,N/A,,Mostly Cloudy,200,2012-12-14 23:15:00
4:35 PM,33.8,26.6,75,29.64,10.0,SW,4.6,-,N/A,,Overcast,230,2012-12-14 23:35:00
4:55 PM,33.8,23.0,65,29.65,10.0,WSW,4.6,-,N/A,,Overcast,250,2012-12-14 23:55:00
5:15 PM,33.8,21.2,60,29.66,10.0,WSW,10.4,-,N/A,,Mostly Cloudy,240,2012-12-15 00:15:00
5:35 PM,33.8,21.2,60,29.67,10.0,WSW,12.7,21.9,N/A,,Partly Cloudy,240,2012-12-15 00:35:00
5:55 PM,32.0,21.2,64,29.69,10.0,WSW,20.7,27.6,N/A,,Partly Cloudy,250,2012-12-15 00:55:00
6:15 PM,30.2,24.8,80,29.71,10.0,SW,17.3,20.7,N/A,,Mostly Cloudy,230,2012-12-15 01:15:00
6:35 PM,30.2,21.2,69,29.72,10.0,SW,8.1,-,N/A,,Mostly Cloudy,230,2012-12-15 01:35:00
6:55 PM,30.2,21.2,69,29.72,10.0,SW,13.8,21.9,N/A,,Partly Cloudy,230,2012-12-15 01:55:00
7:55 PM,28.4,24.8,86,29.76,8.0,WSW,8.1,-,N/A,,Mostly Cloudy,240,2012-12-15 02:55:00
8:35 PM,28.4,21.2,74,29.78,10.0,SW,12.7,-,N/A,,Overcast,230,2012-12-15 03:35:00
8:55 PM,30.2,21.2,69,29.78,10.0,SW,12.7,-,N/A,,Overcast,220,2012-12-15 03:55:00
9:15 PM,30.2,21.2,69,29.79,10.0,SW,11.5,-,N/A,,Overcast,220,2012-12-15 04:15:00
9:35 PM,30.2,21.2,69,29.79,10.0,WSW,11.5,-,N/A,,Overcast,240,2012-12-15 04:35:00
9:55 PM,30.2,21.2,69,29.80,10.0,WSW,10.4,-,N/A,,Overcast,240,2012-12-15 04:55:00
10:15 PM,30.2,21.2,69,29.80,10.0,SW,11.5,-,N/A,,Overcast,230,2012-12-15 05:15:00
10:35 PM,30.2,21.2,69,29.81,10.0,SW,8.1,-,N/A,,Overcast,220,2012-12-15 05:35:00
11:15 PM,30.2,19.4,64,29.83,10.0,SSW,10.4,-,N/A,,Overcast,210,2012-12-15 06:15:00
11:35 PM,30.2,21.2,69,29.83,10.0,SSW,8.1,-,N/A,,Overcast,210,2012-12-15 06:35:00
11:55 PM,30.2,21.2,69,29.83,10.0,SSW,9.2,-,N/A,,Overcast,200,2012-12-15 06:55:00